Regional Weather Roundup
Issued by NWS Northern Indiana

Home | Current Version | Previous Version | Graphics & Text | Print | Product List | Glossary Off
Versions: 1 2 3 4 5 6 7 8 9 10 11 12 13 14 15 16 17 18 19 20 21 22 23 24 25 26 27 28 29 30 31 32 33 34 35 36 37 38 39 40 41 42 43 44 45 46 47 48 49 50

000
ASUS43 KIWX 291710
RWRIWX

KIWX WEATHER ROUNDUP
NATIONAL WEATHER SERVICE NORTHERN INDIANA
100 PM EDT FRI APR 29 2016

NOTE: "FAIR" INDICATES FEW OR NO CLOUDS BELOW 12,000 FEET WITH NO
SIGNIFICANT WEATHER AND/OR OBSTRUCTIONS TO VISIBILITY.

* THESE STATIONS ARE NOT UNDER NWS QUALITY CONTROL. THEY ALSO MAY NOT
  REPORT WEATHER SUCH AS PRECIPITATION OR FOG.

INZ001>027-291800-
NORTHERN INDIANA

CITY           SKY/WX    TMP DP  RH WIND       PRES   REMARKS
GARY*          PTSUNNY   48  46  93 N12G23    30.10S FOG
VALPARAISO     CLOUDY    48  42  80 VRB7      30.09R
MICHIGAN CITY* FOG       43  43 100 N7        30.09S VSB 1/2
LAPORTE*       CLOUDY    49  48  97 N10       30.08S FOG
KNOX*          CLOUDY    50  37  62 N6        30.07S
SOUTH BEND     CLOUDY    49  45  86 N5        30.06F
ELKHART*       CLOUDY    50  46  87 CALM      30.06F
GOSHEN         CLOUDY    50  44  80 NE6       30.06S
MONTICELLO*    CLOUDY    52  44  73 NW9       30.08R
LOGANSPORT*    CLOUDY    52  46  82 N6        30.08R
ROCHESTER*     CLOUDY    54  46  76 NW6       30.06F
WARSAW*        CLOUDY    50  45  81 CALM      30.06S
ANGOLA*        CLOUDY    48  41  76 NE5       30.06S
FORT WAYNE     CLOUDY    50  44  80 CALM      30.07S
HUNTINGTON*    CLOUDY   N/A N/A N/A N5        30.05F
MARION*        CLOUDY    54  47  78 N6        30.06S

$$
INZ028>050-291800-
CENTRAL INDIANA

CITY           SKY/WX    TMP DP  RH WIND       PRES   REMARKS
LAFAYETTE      CLOUDY    53  46  77 N6        30.09R
KOKOMO*        CLOUDY    55  46  71 N9        30.06R
MUNCIE*        CLOUDY    58  48  69 NW12      30.05S
INDIANAPOLIS   PTSUNNY   60  47  61 NW9       30.06R

$$
MIZ043>046-050>051-056>058-064>065-071>073-077>080-291800-
SOUTHWEST LOWER MICHIGAN

CITY           SKY/WX    TMP DP  RH WIND       PRES   REMARKS
BATTLE CREEK   CLOUDY    49  37  63 N6        30.09S
BENTON HARBOR  CLOUDY    47  43  86 N7        30.07F FOG
COLDWATER*     CLOUDY    49  40  70 CALM      30.06F
HILLSDALE*     CLOUDY    48  38  68 NW3       30.06F
HOLLAND        CLOUDY    47  38  71 NE6       30.12R
GRAND RAPIDS   CLOUDY    46  37  71 E5        30.11R
KALAMAZOO      CLOUDY    48  39  71 CALM      30.09S
STURGIS*       CLOUDY    47  42  82 NE6       30.05F
THREE RIVERS*  CLOUDY    48  43  84 CALM      30.07F

$$
OHZ001>008-015>018-024>025-291800-
NORTHWEST OHIO

CITY           SKY/WX    TMP DP  RH WIND       PRES   REMARKS
WAUSEON*         N/A     52 N/A N/A N10       30.07F
DEFIANCE       CLOUDY    51  42  71 NW8       30.06F
FINDLAY        CLOUDY    52  41  66 N8        30.05R
TOLEDO EXPRESS CLOUDY    52  37  56 VRB5G16   30.06F
TOLEDO METCALF CLOUDY    52  38  58 NE7       30.07F
LIMA           LGT RAIN  49  46  90 N9        30.05S FOG

$$
AND FOR LAKE MICHIGAN COASTAL AND OPEN LAKE BUOY OBSERVATIONS

STATION/POSITION TEMP    WIND        PRES    VSBY  WAVE
                 AIR SEA DIR/SP/G                  HT/PER
                 (F)     (DEG/KT/KT) (MB)    (MI)  (FT/S)
CALUMET HARBOR    43     330/ 13/ 16 1018.7F
MICHIGAN CITY     42     310/ 15/ 16   N/A
BURNS HARBOR      42     350/ 11/ 15 1019.6F
SAINT JOSEPH      47     330/  9/ 11 1018.3F
SOUTH LAKE BUOY   40 40   40/ 10/ 10 1019.7F         1/ 3
4 MI NW BRIDGMAN  43 46     CALM       N/A           2/ 4

$$
&&




USA.gov is the U.S. government's official web portal to all federal, state and local government web resources and services.